Weather reports worldwide

Advertisment
Mona Airfield, United Kingdom (3301): temperature & dewpoint: 17.02.2019 14:00:00 - 23.02.2019 14:00:00 (GMT)Mona Airfield, United Kingdom (3301): wind speed & gusts: 17.02.2019 14:00:00 - 23.02.2019 14:00:00 (GMT)Mona Airfield, United Kingdom (3301): wind direction: 17.02.2019 14:00:00 - 23.02.2019 14:00:00 (GMT)Mona Airfield, United Kingdom (3301): reduced air pressure: 17.02.2019 14:00:00 - 23.02.2019 14:00:00 (GMT)Mona Airfield, United Kingdom (3301): visibility: 17.02.2019 14:00:00 - 23.02.2019 14:00:00 (GMT)Mona Airfield, United Kingdom (3301): precipitation: 17.02.2019 14:00:00 - 23.02.2019 14:00:00 (GMT)
Date & Time tt [°C] td [°C] ff [km/h] ff [kn] fx [km/h] fx [kn] dd ppp [hPa] vv [km] rr [mm]
23.02.2019 14:00:00 - - - - - - - - - -
23.02.2019 13:00:00 13,6 6,2 39 21 55 30 S 1028,7 10 0,0
23.02.2019 12:00:00 14,0 5,5 35 19 48 26 S 1028,5 11 0,0
23.02.2019 11:00:00 13,5 5,3 35 19 52 28 S 1027,8 12 0,0
23.02.2019 10:00:00 13,7 5,5 35 19 54 29 S 1027,8 12 0,0
23.02.2019 09:00:00 12,4 5,5 31 17 48 26 S 1027,7 11 0,0
23.02.2019 08:00:00 11,5 4,6 29 16 - - S 1027,9 12 0,0
23.02.2019 07:00:00 11,3 3,9 29 16 48 26 S 1027,7 13 0,0
23.02.2019 06:00:00 11,9 3,8 35 19 52 28 S 1027,8 13 0,0
23.02.2019 05:00:00 11,8 4,1 35 19 50 27 S 1027,6 12 0,0
23.02.2019 04:00:00 11,3 3,7 24 13 - - S 1028,0 13 0,0
23.02.2019 03:00:00 12,2 3,8 28 15 - - S 1028,5 14 0,0
23.02.2019 02:00:00 12,7 3,4 29 16 - - S 1028,4 16 0,0
23.02.2019 01:00:00 12,8 3,4 26 14 - - S 1028,6 16 0,0
23.02.2019 00:00:00 12,9 3,2 28 15 - - S 1028,9 16 0,0
22.02.2019 23:00:00 12,7 3,3 21 11 - - S 1028,8 17 0,0
22.02.2019 22:00:00 12,7 3,6 26 14 - - S 1028,9 17 0,0
22.02.2019 21:00:00 12,1 3,3 21 11 - - SSE 1029,2 19 0,0
22.02.2019 20:00:00 12,3 1,7 16 9 - - S 1029,4 23 0,0
22.02.2019 19:00:00 11,6 3,1 13 7 - - S 1029,8 24 0,0
22.02.2019 18:00:00 12,9 3,2 22 12 - - S 1029,8 26 0,0
22.02.2019 17:00:00 13,4 4,6 18 10 - - S 1029,6 24 0,0
22.02.2019 16:00:00 15,3 4,8 26 14 - - S 1029,6 24 0,0
22.02.2019 15:00:00 16,4 4,2 29 16 - - S 1029,9 18 0,0
22.02.2019 14:00:00 16,3 4,4 29 16 - - S 1030,3 18 0,0
22.02.2019 13:00:00 15,7 5,4 29 16 - - S 1030,7 18 0,0
22.02.2019 12:00:00 14,2 6,4 26 14 - - S 1031,3 17 0,0
22.02.2019 11:00:00 14,1 6,2 31 17 48 26 S 1031,4 16 0,0
22.02.2019 10:00:00 13,0 6,5 28 15 - - S 1031,2 15 0,0
22.02.2019 09:00:00 11,8 5,8 26 14 - - S 1031,2 15 0,0
22.02.2019 08:00:00 11,0 5,6 22 12 - - S 1030,6 15 0,0
22.02.2019 07:00:00 12,0 5,4 31 17 - - S 1029,5 16 0,0
22.02.2019 06:00:00 11,4 4,6 31 17 46 25 S 1028,2 18 0,0
22.02.2019 05:00:00 11,3 3,9 31 17 46 25 S 1028,0 19 0,0
22.02.2019 04:00:00 10,5 4,2 29 16 48 26 S 1027,8 17 0,0
22.02.2019 03:00:00 10,2 4,7 34 18 50 27 S 1028,0 15 0,0
22.02.2019 02:00:00 9,8 5,2 34 18 46 25 S 1028,1 14 0,0
22.02.2019 01:00:00 9,9 5,9 29 16 - - S 1028,0 13 0,0
22.02.2019 00:00:00 10,0 6,6 28 15 - - S 1027,8 12 0,0
21.02.2019 23:00:00 9,9 6,6 24 13 - - S 1027,4 13 0,0
21.02.2019 22:00:00 9,7 6,9 22 12 - - S 1026,8 12 0,0
21.02.2019 21:00:00 9,4 6,8 21 11 - - S 1026,4 13 0,0
21.02.2019 20:00:00 10,7 7,2 22 12 - - S 1026,1 15 0,0
21.02.2019 19:00:00 9,8 7,2 21 11 - - S 1025,8 13 0,0
21.02.2019 18:00:00 9,8 7,2 24 13 - - SSW 1025,1 13 0,0
21.02.2019 17:00:00 10,8 7,8 24 13 - - S 1024,6 12 0,0
21.02.2019 16:00:00 11,4 8,4 28 15 50 27 S 1024,2 12 0,0
21.02.2019 15:00:00 11,3 8,7 41 22 52 28 S 1023,9 13 0,0
21.02.2019 14:00:00 10,2 9,2 39 21 54 29 SSW 1023,6 6 0,0
21.02.2019 13:00:00 10,4 9,2 39 21 52 28 S 1023,5 8 0,0
21.02.2019 12:00:00 10,2 9,2 41 22 57 31 SSW 1023,5 7 0,0
21.02.2019 11:00:00 10,2 9,2 44 24 55 30 SSW 1023,0 6 0,0
21.02.2019 10:00:00 10,0 9,3 37 20 54 29 S 1022,5 6 0,0
21.02.2019 09:00:00 9,9 9,4 35 19 52 28 S 1021,7 7 0,0
21.02.2019 08:00:00 9,7 9,3 41 22 55 30 SSW 1020,9 5 0,0
21.02.2019 07:00:00 9,7 9,5 39 21 50 27 SSW 1020,2 2,3 0,0
21.02.2019 06:00:00 9,6 9,3 39 21 50 27 SSW 1019,5 2,1 0,0
21.02.2019 05:00:00 9,8 9,4 34 18 50 27 S 1018,8 7 0,0
21.02.2019 04:00:00 9,9 9,5 35 19 50 27 S 1017,8 8 0,0
21.02.2019 03:00:00 9,4 9,1 29 16 48 26 S 1017,5 5 0,2
21.02.2019 02:00:00 9,9 9,7 39 21 57 31 S 1017,2 5 0,2
21.02.2019 01:00:00 9,7 9,5 41 22 57 31 S 1016,8 1,8 0,0
21.02.2019 00:00:00 9,6 9,4 42 23 55 30 SSW 1016,1 1,4 0,2
20.02.2019 23:00:00 9,5 9,3 41 22 55 30 SSW 1016,0 1,4 0,6
20.02.2019 22:00:00 9,4 9,2 41 22 55 30 S 1015,6 1,6 0,2
20.02.2019 21:00:00 9,3 9,0 39 21 61 33 S 1015,4 1,6 0,4
20.02.2019 20:00:00 9,3 8,9 41 22 57 31 S 1015,2 2,8 0,2
20.02.2019 19:00:00 9,3 9,0 39 21 54 29 S 1014,8 13 0,2
20.02.2019 18:00:00 9,0 8,8 35 19 54 29 S 1014,4 2,5 0,2
20.02.2019 17:00:00 9,2 8,9 39 21 57 31 S 1014,0 1,7 0,2
20.02.2019 16:00:00 9,4 9,0 41 22 59 32 SSW 1013,7 9 0,0
20.02.2019 15:00:00 9,0 8,5 39 21 55 30 S 1013,6 1,8 -
20.02.2019 14:00:00 9,1 8,5 42 23 68 37 S 1013,5 2,2 -
20.02.2019 13:00:00 9,3 8,2 42 23 59 32 S 1013,5 7 0,2
20.02.2019 12:00:00 9,4 8,3 41 22 59 32 S 1013,6 9 0,2
20.02.2019 11:00:00 9,4 8,4 42 23 61 33 S 1013,4 7 0,4
20.02.2019 10:00:00 9,2 7,6 44 24 63 34 S 1013,0 7 0,0
20.02.2019 09:00:00 9,2 7,5 46 25 67 36 SSW 1012,4 10 0,0
20.02.2019 08:00:00 9,0 7,3 42 23 59 32 S 1012,1 9 0,0
20.02.2019 07:00:00 8,9 7,2 44 24 68 37 S 1011,6 9 0,0
20.02.2019 06:00:00 8,8 7,2 50 27 65 35 S 1011,4 10 0,0
20.02.2019 05:00:00 8,7 7,2 42 23 63 34 S 1011,4 10 0,0
20.02.2019 04:00:00 8,5 7,4 41 22 59 32 S 1011,5 10 0,0
20.02.2019 03:00:00 8,5 7,6 42 23 65 35 S 1011,7 4,9 0,2
20.02.2019 02:00:00 8,3 7,8 42 23 59 32 S 1012,2 7 0,0
20.02.2019 01:00:00 8,2 7,8 42 23 63 34 S 1012,2 4,2 0,6
20.02.2019 00:00:00 8,0 7,6 44 24 63 34 S 1011,7 7 0,6
19.02.2019 23:00:00 7,8 7,4 46 25 67 36 S 1011,6 3,9 0,4
19.02.2019 22:00:00 7,7 7,2 48 26 63 34 S 1011,9 6 0,6
19.02.2019 21:00:00 7,9 7,3 50 27 65 35 SSW 1011,9 5 0,8
19.02.2019 20:00:00 7,9 7,0 46 25 63 34 SSW 1012,1 5 0,8
19.02.2019 19:00:00 7,7 6,7 42 23 57 31 S 1012,2 7 0,6
19.02.2019 18:00:00 7,7 6,7 41 22 57 31 SSW 1012,6 6 0,4
19.02.2019 17:00:00 7,6 6,5 37 20 54 29 S 1013,0 7 0,4
19.02.2019 16:00:00 8,5 5,8 37 20 52 28 SSW 1013,3 15 0,0
19.02.2019 15:00:00 8,5 5,3 34 18 50 27 S 1013,9 18 0,0
19.02.2019 14:00:00 8,7 5,6 34 18 48 26 S 1014,5 18 0,0
19.02.2019 13:00:00 8,8 5,7 34 18 46 25 SSW 1014,8 18 0,0
19.02.2019 12:00:00 8,6 5,4 31 17 - - SSW 1015,2 23 0,0
19.02.2019 11:00:00 7,8 6,1 22 12 - - SSW 1015,3 20 0,0
19.02.2019 10:00:00 7,1 4,6 24 13 - - SW 1015,5 6 0,0
19.02.2019 09:00:00 6,9 4,6 21 11 - - SW 1015,3 16 0,0
19.02.2019 08:00:00 5,4 3,7 16 9 - - SW 1015,1 13 0,0
19.02.2019 07:00:00 5,0 3,1 18 10 - - SW 1014,8 13 0,0
19.02.2019 06:00:00 6,2 4,4 15 8 - - SW 1014,8 15 0,0
19.02.2019 05:00:00 6,0 4,4 21 11 - - SW 1014,7 10 0,0
19.02.2019 04:00:00 6,8 5,1 16 9 - - WSW 1014,6 11 0,0
19.02.2019 03:00:00 6,9 5,1 21 11 - - SW 1014,5 11 0,0
19.02.2019 02:00:00 7,5 5,5 24 13 - - SW 1014,3 11 0,0
19.02.2019 01:00:00 7,8 5,7 28 15 - - SW 1013,9 12 0,0
19.02.2019 00:00:00 7,8 5,7 28 15 63 34 WSW 1013,4 12 0,0
18.02.2019 23:00:00 7,9 5,8 28 15 - - WSW 1013,0 12 0,0
18.02.2019 22:00:00 8,1 5,5 28 15 - - WSW 1012,7 13 0,0
18.02.2019 21:00:00 7,7 5,0 31 17 - - WSW 1012,1 13 0,0
18.02.2019 20:00:00 8,2 5,3 29 16 - - SW 1011,6 14 0,0
18.02.2019 19:00:00 8,4 6,0 34 18 50 27 SW 1011,1 12 0,0
18.02.2019 18:00:00 8,3 6,0 34 18 46 25 SW 1010,6 11 0,0
18.02.2019 17:00:00 8,2 5,9 34 18 54 29 SW 1010,2 11 0,0
18.02.2019 16:00:00 8,7 5,0 39 21 52 28 SW 1009,8 15 0,0
18.02.2019 15:00:00 8,6 4,9 29 16 52 28 SW 1009,6 15 0,0
18.02.2019 14:00:00 8,1 5,3 35 19 55 30 SW 1009,6 16 0,2
18.02.2019 13:00:00 7,8 4,5 39 21 61 33 SW 1009,5 9 0,0
18.02.2019 12:00:00 9,2 4,1 46 25 63 34 SSW 1009,6 15 0,0
18.02.2019 11:00:00 9,3 4,3 42 23 59 32 SW 1009,7 13 0,0
18.02.2019 10:00:00 8,7 4,7 35 19 48 26 SSW 1009,6 12 0,0
18.02.2019 09:00:00 7,3 4,2 34 18 48 26 SW 1009,6 10 0,0
18.02.2019 08:00:00 7,2 5,3 29 16 - - SW 1009,2 9 0,0
18.02.2019 07:00:00 7,5 6,0 26 14 - - SW 1008,7 10 0,0
18.02.2019 06:00:00 8,0 6,5 35 19 61 33 SSW 1008,4 10 0,2
18.02.2019 05:00:00 8,2 6,6 42 23 57 31 S 1007,8 9 0,0
18.02.2019 04:00:00 8,3 6,5 37 20 57 31 S 1008,0 8 0,0
18.02.2019 03:00:00 8,4 6,5 41 22 57 31 SSW 1008,3 9 0,0
18.02.2019 02:00:00 8,5 6,9 39 21 55 30 SSW 1008,7 8 0,0
18.02.2019 01:00:00 8,5 6,9 41 22 55 30 SSW 1008,6 8 0,0
18.02.2019 00:00:00 8,7 6,9 41 22 59 32 SSW 1008,5 8 0,0
17.02.2019 23:00:00 8,8 6,9 39 21 55 30 SSW 1008,6 8 0,0
17.02.2019 22:00:00 8,9 6,9 42 23 61 33 SSW 1008,4 8 0,0
17.02.2019 21:00:00 9,3 6,8 44 24 68 37 S 1008,2 8 0,0
17.02.2019 20:00:00 9,3 6,3 44 24 72 39 S 1008,1 10 0,0
17.02.2019 19:00:00 9,3 5,7 42 23 65 35 S 1008,1 10 0,0
17.02.2019 18:00:00 9,2 5,7 42 23 59 32 S 1007,9 10 0,0
17.02.2019 17:00:00 9,5 6,2 41 22 54 29 SSW 1007,8 10 0,0
17.02.2019 16:00:00 9,9 6,0 37 20 65 35 SSW 1008,0 11 0,0
17.02.2019 15:00:00 10,7 6,5 42 23 61 33 SSW 1007,8 11 0,0
17.02.2019 14:00:00 10,7 7,3 46 25 61 33 SSW 1007,8 10 0,0

tt = temperature
td = dewpoint
ff = wind speed
fx = gusts
dd = wind direction
ppp = reduced air pressure
vv = visibility
rr = precipitation

Next stations